Moderate Warning for Thunderstorm
until 9:59 PM CEST
| Temperature (°F) | Max | Average | Min |
|---|---|---|---|
| Max Temperature | 100 | 87.75 | 61 |
| Avg Temperature | 84.63 | 74.89 | 59 |
| Min Temperature | 74 | 61.25 | 52 |
| Precipitation (in) | Max | Average | Min | Sum |
|---|---|---|---|---|
| Precipitation | 0 | 0 | 0 | 0 |
| Dew Point (°F) | Max | Average | Min |
|---|---|---|---|
| Dew Point | 65.42 | 57.02 | 44.13 |
| Wind (mph) | Max | Average | Min |
|---|---|---|---|
| Wind | 13 | 7.38 | 2 |
| Gust Wind | - | - | - |
| Sea Level Pressure (in) | Max | Average | Min |
|---|---|---|---|
| Sea Level Pressure | 29.6 | 29.36 | 29.18 |
| Date | Temp High/Low | Dew Pt High/Low | Humidity | Wind | Max Wind | Wind Gust | Pressure | Precip. | Condition |
|---|---|---|---|---|---|---|---|---|---|
| 8/1/2026 | 97 °F / 63 °F | 64 °F / 48 °F | 55 % | 7 mph | - | 29.29 in | 0 in | ||
| 8/2/2026 | 96 °F / 66 °F | 64 °F / 56 °F | 54 % | 9 mph | - | 29.34 in | 0 in | ||
| 8/3/2026 | 98 °F / 63 °F | 64 °F / 48 °F | 53 % | 7 mph | - | 29.33 in | 0 in | ||
| 8/4/2026 | 100 °F / 63 °F | 61 °F / 52 °F | 51 % | 9 mph | - | 29.31 in | 0 in | ||
| 8/5/2026 | 99 °F / 63 °F | 61 °F / 42 °F | 48 % | 7 mph | - | 29.33 in | 0 in | ||
| 8/6/2026 | 99 °F / 60 °F | 61 °F / 48 °F | 47 % | 7 mph | - | 29.33 in | 0 in | ||
| 8/7/2026 | 91 °F / 70 °F | 62 °F / 55 °F | 52 % | 13 mph | - | 29.37 in | 0 in | ||
| 8/8/2026 | 86 °F / 65 °F | 66 °F / 51 °F | 65 % | 13 mph | - | 29.46 in | 0 in | ||
| 8/9/2026 | 90 °F / 56 °F | 60 °F / 53 °F | 58 % | 7 mph | - | 29.44 in | 0 in | ||
| 8/10/2026 | 95 °F / 60 °F | 63 °F / 56 °F | 57 % | 4 mph | - | 29.35 in | 0 in | ||
| 8/11/2026 | 94 °F / 66 °F | 65 °F / 54 °F | 57 % | 11 mph | - | 29.4 in | 0 in | ||
| 8/12/2026 | 87 °F / 64 °F | 51 °F / 37 °F | 33 % | 9 mph | - | 29.58 in | 0 in | ||
| 8/13/2026 | 86 °F / 56 °F | 48 °F / 36 °F | 41 % | 9 mph | - | 29.6 in | 0 in | ||
| 8/14/2026 | 87 °F / 53 °F | 51 °F / 40 °F | 47 % | 4 mph | - | 29.5 in | 0 in | ||
| 8/15/2026 | 92 °F / 52 °F | 53 °F / 42 °F | 50 % | 7 mph | - | 29.38 in | 0 in | ||
| 8/16/2026 | 95 °F / 56 °F | 55 °F / 50 °F | 50 % | 9 mph | - | 29.29 in | 0 in | ||
| 8/17/2026 | 80 °F / 66 °F | 64 °F / 56 °F | 64 % | 9 mph | - | 29.23 in | 0 in | ||
| 8/18/2026 | 78 °F / 59 °F | 64 °F / 56 °F | 77 % | 4 mph | - | 29.26 in | 0 in | ||
| 8/19/2026 | 92 °F / 63 °F | 63 °F / 51 °F | 62 % | 9 mph | - | 29.23 in | 0 in | ||
| 8/20/2026 | 96 °F / 75 °F | 64 °F / 58 °F | 46 % | 11 mph | - | 29.17 in | 0 in | ||
| 8/21/2026 | 82 °F / 67 °F | 70 °F / 60 °F | 79 % | 13 mph | - | 29.2 in | 0 in | ||
| 8/22/2026 | 76 °F / 62 °F | 62 °F / 55 °F | 72 % | 4 mph | - | 29.34 in | 0 in | ||
| 8/23/2026 | 80 °F / 60 °F | 62 °F / 50 °F | 65 % | 7 mph | - | 29.5 in | 0 in | ||
| 8/24/2026 | 85 °F / 54 °F | 57 °F / 48 °F | 63 % | 4 mph | - | 29.45 in | 0 in | ||
| 8/25/2026 | 82 °F / 55 °F | 65 °F / 53 °F | 74 % | 7 mph | - | 29.28 in | 0 in | ||
| 8/26/2026 | 87 °F / 62 °F | 63 °F / 56 °F | 68 % | 4 mph | - | 29.38 in | 0 in | ||
| 8/27/2026 | 90 °F / 61 °F | 64 °F / 60 °F | 65 % | 4 mph | - | 29.37 in | 0 in | ||
| 8/28/2026 | 89 °F / 65 °F | 68 °F / 57 °F | 59 % | 11 mph | - | 29.3 in | 0 in | ||
| 8/29/2026 | 83 °F / 63 °F | 65 °F / 55 °F | 62 % | 9 mph | - | 29.34 in | 0 in | ||
| 8/30/2026 | 87 °F / 56 °F | 60 °F / 54 °F | 65 % | 4 mph | - | 29.37 in | 0 in | ||
| 8/31/2026 | 63 °F / 58 °F | 59 °F / 56 °F | 93 % | 2 mph | - | 29.34 in | 0 in |